#timestamp,LO_Frequency,Hit,StdDev 
1661504415.5,286047006.2,N
1661504435.3,286047007.0,N
1661504455.1,286047007.6,N
1661504475.9,286047007.5,N
1661504495.7,286047006.4,N
1661504515.6,286047008.8,Y
1661504535.4,286047002.7,P
1661504555.2,286047002.6,N
1661504575.1,286047002.2,N
1661504576.0,286047002.2,N
1661504595.8,286047000.0,N
1661504615.6,286047000.8,N
1661504635.5,286047000.3,N
1661504655.3,286046999.9,N
1661504675.2,286047000.7,N
1661504695.9,286047001.0,N
1661504715.7,286047000.5,N
1661504735.6,286046998.6,N
1661504755.4,286047000.0,N
1661504775.2,286047000.4,N
1661504795.1,286047001.1,N
1661504796.0,286047001.1,N
1661504815.8,286047000.8,N
1661504835.7,286046997.0,N
1661504855.5,286046996.3,N
1661504875.3,286046995.5,N
1661504895.2,286046997.0,N
1661504915.0,286046998.6,N
1661504915.9,286046998.6,N
1661504935.7,286047000.4,N
1661504955.6,286047001.3,N
1661504975.4,286047000.2,N
1661504995.3,286047000.7,N
1661505015.1,286047002.3,N
1661505035.8,286047002.0,N
1661505055.7,286047001.0,N
1661505075.5,286046998.2,N
1661505095.4,286046995.0,N
1661505115.2,286046999.3,N
1661505135.0,286047000.7,N
1661505135.9,286047000.7,N
1661505155.8,286046998.1,N
1661505175.6,286046999.9,N
1661505195.5,286046999.8,N
1661505215.3,286047000.5,N
1661505235.1,286047002.1,N
1661505255.9,286047003.2,N
1661505275.7,286047007.5,Y
1661505295.5,286047006.5,P
1661505315.4,286047004.9,N
1661505335.2,286047003.5,N
1661505355.1,286047002.3,N
1661505356.0,286047002.3,N
1661505375.8,286047001.8,N
1661505395.6,286047001.1,N
1661505415.5,286046997.8,N
1661505435.3,286046993.4,N
1661505455.2,286046991.0,N
1661505475.9,286046992.8,N
1661505495.7,286046990.2,N
1661505515.6,286046990.2,N
1661505535.4,286046993.0,N
1661505555.2,286046992.8,N
1661505575.1,286046994.3,N
1661505576.0,286046994.3,N
1661505595.8,286046995.9,N
1661505615.7,286046995.6,N
1661505635.5,286046994.9,N
1661505655.3,286046997.8,N
1661505675.2,286046998.4,N
1661505695.0,286046998.5,N
1661505695.9,286046998.5,N
1661505715.8,286047000.8,N
1661505735.6,286047000.0,N
1661505755.4,286047001.1,N
1661505775.3,286046999.3,N
1661505795.1,286046999.1,N
1661505815.8,286047001.2,N
1661505835.7,286046996.6,N
1661505855.5,286047001.2,N
1661505875.4,286046999.9,N
1661505895.2,286047002.6,N
1661505915.0,286047001.9,N
1661505915.9,286047001.9,N
1661505935.8,286047003.2,N
1661505955.6,286047002.2,N
1661505975.4,286047001.6,N
1661505995.3,286047003.8,N
1661506015.1,286047004.2,N
1661506035.9,286046998.6,N
1661506055.7,286046998.0,N
1661506075.5,286046999.5,N
1661506095.4,286046998.7,N
1661506115.2,286047000.8,N
1661506135.0,286046999.0,N
1661506136.0,286046999.0,N
1661506155.8,286046998.1,N
1661506175.6,286046996.6,N
1661506195.5,286046995.7,N
1661506215.3,286046995.7,N
1661506235.1,286046995.8,N
1661506255.9,286046994.0,N
1661506275.7,286046991.8,Y
1661506295.6,286046995.6,P
1661506315.4,286046997.9,N
1661506335.2,286046996.5,N
1661506355.1,286046996.7,N
1661506356.0,286046996.7,N
1661506375.8,286046995.5,Y
1661506395.6,286046998.2,P
1661506415.5,286046997.8,P
1661506435.3,286046999.6,N
1661506455.2,286047002.4,N
1661506475.9,286047004.2,N
1661506495.7,286047001.7,N
1661506515.6,286047003.9,N
1661506535.4,286047001.3,N
1661506555.3,286047005.1,N
1661506575.1,286047005.1,N
1661506576.0,286047005.1,N
1661506595.8,286047003.4,N
1661506615.7,286047007.4,N
1661506635.5,286047001.4,N
1661506655.3,286047004.0,N
1661506675.2,286047003.6,N
1661506695.0,286047003.2,N
1661506695.9,286047003.2,N
1661506715.8,286047004.1,N
1661506735.6,286047004.3,N
1661506755.4,286047000.3,N
1661506775.3,286047000.6,N
1661506795.1,286047002.1,N
1661506815.8,286047004.2,N
1661506835.7,286047005.1,N
1661506855.5,286047007.5,Y
1661506875.4,286047003.5,P
1661506895.2,286047002.2,P
1661506915.0,286046999.7,N
1661506915.9,286046999.7,N
1661506935.8,286046998.3,N
1661506955.6,286046998.5,N
1661506975.5,286046998.1,N
1661506995.3,286046998.2,N
1661507015.1,286047000.9,N
1661507035.9,286046999.7,N
1661507055.7,286046999.7,N
1661507075.5,286047002.3,N
1661507095.4,286047003.8,N
1661507115.2,286047005.4,N
1661507135.1,286047004.3,N
1661507136.0,286047004.3,N
1661507155.8,286047004.0,N
1661507175.6,286047000.4,N
1661507195.5,286046998.4,N
1661507215.3,286046998.1,N
1661507235.1,286046997.1,N
1661507255.9,286046997.9,N
1661507275.7,286046996.9,N
1661507295.6,286047000.9,N
1661507315.4,286046998.8,N
1661507335.2,286047000.9,N
1661507355.1,286047000.0,N
1661507356.0,286047000.0,N
1661507375.8,286047000.0,N
1661507395.7,286047002.8,N
1661507415.5,286047000.2,N
1661507435.3,286047000.6,N
1661507455.2,286047000.4,N
1661507475.9,286047001.8,N
1661507495.7,286047003.9,N
1661507515.6,286047002.0,N
1661507535.4,286047002.8,N
1661507555.3,286046998.6,N
1661507575.1,286047001.0,N
1661507576.0,286047001.0,N
1661507595.8,286047000.0,N
1661507615.7,286047002.7,N
1661507635.5,286047011.9,Y
1661507655.3,286046998.1,P
1661507675.2,286046999.3,N
1661507695.0,286046996.9,N
1661507695.9,286046996.9,N
1661507715.8,286046997.1,N
1661507735.6,286046999.0,N
1661507755.4,286046997.9,N
1661507775.3,286046998.9,N
1661507795.1,286047000.8,N
1661507815.9,286046999.3,N
1661507835.7,286046997.2,N
1661507855.5,286046998.0,N
1661507875.4,286046995.3,Y
1661507895.2,286046997.2,P
1661507915.1,286046999.6,N
1661507916.0,286046999.6,N
1661507935.8,286046999.2,N
1661507955.6,286046997.0,Y
1661507975.5,286046996.7,P
1661507995.3,286046999.6,N
